Regional Weather Roundup
Issued by NWS

Home | Current Version | Previous Version | Text Only | Print | Product List | Glossary On
Versions: 1 2 3 4 5 6 7 8 9 10 11 12 13 14 15 16 17 18 19 20 21 22 23 24 25 26 27 28 29 30 31 32 33 34 35 36 37 38 39 40 41 42 43 44 45 46 47 48 49 50
000
ASUS44 KOUN 262110
RWROK

WEATHER ROUNDUP FOR OKLAHOMA
NATIONAL WEATHER SERVICE NORMAN OK
400 PM CDT WED JUL 26 2017

NOTE: "FAIR" INDICATES FEW OR NO CLOUDS BELOW 12,000 FEET WITH NO
      SIGNIFICANT WEATHER AND/OR OBSTRUCTIONS TO VISIBILITY.

OKZ001>007-009>012-014-015-017-262200-
NORTHWEST OKLAHOMA AND THE PANHANDLE

CITY           SKY/WX    TMP DP  RH WIND       PRES   REMARKS
GAGE           CLOUDY   101  60  25 S17G31    29.94F HX 101
GUYMON         MOSUNNY  101  60  25 N9        29.98F HX 101
ENID/WOODRING  PTSUNNY  104  68  31 S18G25    29.91F HX 110
$$

OKZ016-021>023-033>039-044-045-262200-
SOUTHWEST OKLAHOMA

CITY           SKY/WX    TMP DP  RH WIND       PRES   REMARKS
LAWTON/REGL    CLOUDY    99  71  40 S18G25    29.95F HX 107
LAWTON/FT SILL MOSUNNY   97  75  49 S14G22    29.95F HX 109
FREDERICK      MOSUNNY  100  66  32 S15       29.93F HX 104
CLINTON        MOSUNNY   98  62  30 S20G25    29.98F HX  99
HOBART         MOSUNNY  101  62  27 S15G29    29.97F HX 102
ALTUS AFB      SUNNY    101  63  28 S17       29.95F HX 103
$$

OKZ018>020-024>031-262200-
CENTRAL OKLAHOMA

CITY           SKY/WX    TMP DP  RH WIND       PRES   REMARKS
OKLAHOMA CITY  PTSUNNY   99  65  32 SW16G26   29.97F HX 102
OKC/WILEY POST CLOUDY   100  65  31 SW15      29.96F HX 103
OKC/TINKER AFB CLOUDY    97  68  39 S17G28    29.96F HX 102
STILLWATER     CLOUDY    99  65  32 S12       29.94F HX 102
GUTHRIE        CLOUDY   101  68  34 SW14      29.94F HX 106
$$

OKZ008-013-054>072-262200-
NORTHEAST OKLAHOMA

CITY           SKY/WX    TMP DP  RH WIND       PRES   REMARKS
TULSA          PTSUNNY   97  73  45 S16G22    29.94F HX 107
TULSA/JONES    CLOUDY    98  70  40 S14       29.95F HX 105
PONCA CITY     CLOUDY   100  64  30 S9G18     29.92F HX 102
BARTLESVILLE   CLOUDY    96  71  44 S8        29.95F HX 103
MUSKOGEE       PTSUNNY   92  74  55 SW9       29.99F HX 101
$$

OKZ032-040>043-046>053-073>077-262200-
SOUTH CENTRAL/SOUTHEAST OKLAHOMA

CITY           SKY/WX    TMP DP  RH WIND       PRES   REMARKS
ARDMORE/DWNTWN MOSUNNY   95  64  36 SW9G20    29.99F HX  97
MCALESTER      PTSUNNY   94  77  57 S9        30.00F HX 108
$$




USA.gov is the U.S. government's official web portal to all federal, state and local government web resources and services.